�������l�o���
Date,Time,MP-1(��Sv/h),MP-2(��Sv/h),MP-3(��Sv/h),MP-4(��Sv/h),MP-5(��Sv/h),MP-6(��Sv/h),MP-7(��Sv/h),MP-8(��Sv/h),����,����(m/s),���J
2018/07/15,00:00,0.879,1.252,0.877,1.552,1.109,0.479,0.834,0.788,��쐼,1.2,��
2018/07/15,00:10,0.881,1.257,0.875,1.554,1.108,0.481,0.833,0.788,�쐼,0.9,��
2018/07/15,00:20,0.882,1.258,0.878,1.552,1.108,0.480,0.831,0.787,��쐼,1.2,��
2018/07/15,00:30,0.882,1.258,0.875,1.554,1.110,0.481,0.833,0.788,��,0.9,��
2018/07/15,00:40,0.881,1.258,0.876,1.555,1.109,0.480,0.834,0.788,��쐼,1.1,��
2018/07/15,00:50,0.884,1.254,0.879,1.554,1.107,0.479,0.833,0.787,�쐼,0.6,��
2018/07/15,01:00,0.882,1.260,0.876,1.553,1.109,0.479,0.832,0.788,-,CALM,��
2018/07/15,01:10,0.879,1.260,0.877,1.552,1.109,0.477,0.833,0.787,-,CALM,��
2018/07/15,01:20,0.881,1.256,0.877,1.553,1.107,0.479,0.832,0.789,��쐼,0.6,��
2018/07/15,01:30,0.882,1.256,0.879,1.555,1.110,0.477,0.833,0.789,-,CALM,��
2018/07/15,01:40,0.880,1.259,0.876,1.553,1.109,0.477,0.831,0.787,��쓌,1.1,��
2018/07/15,01:50,0.881,1.256,0.877,1.551,1.108,0.478,0.833,0.789,-,CALM,��
2018/07/15,02:00,0.881,1.255,0.877,1.555,1.108,0.478,0.832,0.788,�쓌,0.6,��
2018/07/15,02:10,0.881,1.257,0.877,1.551,1.109,0.477,0.831,0.786,-,CALM,��
2018/07/15,02:20,0.880,1.257,0.876,1.553,1.108,0.478,0.834,0.789,��쓌,0.9,��
2018/07/15,02:30,0.882,1.255,0.875,1.553,1.108,0.478,0.833,0.788,��,0.8,��
2018/07/15,02:40,0.879,1.257,0.876,1.553,1.107,0.479,0.832,0.787,��,1.2,��
2018/07/15,02:50,0.882,1.257,0.876,1.549,1.106,0.477,0.831,0.789,�쐼,0.9,��
2018/07/15,03:00,0.880,1.257,0.876,1.553,1.108,0.478,0.833,0.787,-,CALM,��
2018/07/15,03:10,0.883,1.256,0.876,1.552,1.107,0.479,0.831,0.788,-,CALM,��
2018/07/15,03:20,0.881,1.258,0.875,1.552,1.108,0.477,0.834,0.787,��,0.8,��
2018/07/15,03:30,0.882,1.255,0.875,1.555,1.107,0.477,0.832,0.788,�쐼,0.9,��
2018/07/15,03:40,0.879,1.257,0.875,1.552,1.109,0.476,0.835,0.787,��쐼,0.8,��
2018/07/15,03:50,0.881,1.257,0.877,1.553,1.107,0.476,0.833,0.787,-,CALM,��
2018/07/15,04:00,0.882,1.259,0.876,1.552,1.107,0.477,0.833,0.788,��쐼,0.6,��
2018/07/15,04:10,0.881,1.259,0.876,1.551,1.108,0.478,0.832,0.788,��쓌,0.9,��
2018/07/15,04:20,0.880,1.260,0.876,1.554,1.108,0.477,0.831,0.788,��,1.4,��
2018/07/15,04:30,0.881,1.257,0.878,1.553,1.105,0.477,0.831,0.788,��,0.9,��
2018/07/15,04:40,0.880,1.259,0.875,1.554,1.108,0.478,0.832,0.789,��쐼,0.6,��
2018/07/15,04:50,0.880,1.257,0.876,1.552,1.107,0.477,0.832,0.787,��쐼,0.8,��
2018/07/15,05:00,0.882,1.257,0.877,1.554,1.108,0.478,0.833,0.785,��,0.8,��
2018/07/15,05:10,0.882,1.259,0.877,1.554,1.109,0.478,0.832,0.788,��,1.7,��
2018/07/15,05:20,0.882,1.257,0.876,1.554,1.109,0.478,0.830,0.787,��쓌,1.7,��
2018/07/15,05:30,0.882,1.254,0.876,1.553,1.108,0.478,0.833,0.788,��,2.9,��
2018/07/15,05:40,0.883,1.255,0.875,1.555,1.109,0.477,0.831,0.788,��,2.3,��
2018/07/15,05:50,0.882,1.256,0.878,1.555,1.108,0.481,0.832,0.789,��,1.9,��
2018/07/15,06:00,0.881,1.258,0.876,1.556,1.106,0.478,0.832,0.787,��,2.9,��
2018/07/15,06:10,0.880,1.254,0.876,1.554,1.108,0.477,0.831,0.788,��,1.7,��
2018/07/15,06:20,0.883,1.257,0.878,1.550,1.109,0.478,0.834,0.788,��쓌,1.7,��
2018/07/15,06:30,0.882,1.256,0.878,1.553,1.105,0.478,0.832,0.787,��,2.3,��
2018/07/15,06:40,0.879,1.258,0.877,1.552,1.107,0.478,0.833,0.786,��,2.2,��
2018/07/15,06:50,0.880,1.256,0.876,1.554,1.108,0.480,0.832,0.787,��쓌,1.5,��
2018/07/15,07:00,0.882,1.255,0.877,1.554,1.106,0.476,0.833,0.789,��쓌,1.9,��
2018/07/15,07:10,0.880,1.255,0.876,1.554,1.109,0.477,0.832,0.789,��쓌,2.2,��
2018/07/15,07:20,0.881,1.256,0.876,1.554,1.109,0.477,0.831,0.789,��쓌,3.2,��
2018/07/15,07:30,0.882,1.252,0.874,1.555,1.106,0.477,0.833,0.789,��쓌,4.4,��
2018/07/15,07:40,0.879,1.254,0.875,1.555,1.108,0.477,0.832,0.789,��쓌,3.9,��
2018/07/15,07:50,0.881,1.256,0.876,1.556,1.106,0.476,0.832,0.789,��쓌,4.4,��
2018/07/15,08:00,0.879,1.256,0.876,1.554,1.108,0.476,0.833,0.788,��쓌,5.3,��
2018/07/15,08:10,0.881,1.254,0.876,1.556,1.104,0.476,0.833,0.790,��쓌,4.8,��
2018/07/15,08:20,0.880,1.253,0.875,1.552,1.105,0.475,0.831,0.789,��쓌,4.3,��
2018/07/15,08:30,0.880,1.254,0.876,1.556,1.107,0.477,0.832,0.788,��쓌,4.3,��
2018/07/15,08:40,0.881,1.257,0.872,1.553,1.106,0.477,0.831,0.785,��쓌,4.1,��
2018/07/15,08:50,0.880,1.257,0.877,1.553,1.108,0.477,0.832,0.786,��쓌,3.7,��
2018/07/15,09:00,0.881,1.258,0.876,1.554,1.108,0.478,0.832,0.786,��쓌,4.0,��
2018/07/15,09:10,0.881,1.257,0.876,1.552,1.108,0.476,0.831,0.786,��쓌,4.1,��
2018/07/15,09:20,0.881,1.259,0.875,1.554,1.109,0.478,0.832,0.785,��쓌,4.4,��
2018/07/15,09:30,0.883,1.257,0.877,1.556,1.109,0.477,0.833,0.785,��쓌,3.9,��
2018/07/15,09:40,0.881,1.258,0.877,1.556,1.107,0.477,0.831,0.787,��쓌,5.8,��
2018/07/15,09:50,0.882,1.260,0.877,1.556,1.107,0.478,0.830,0.787,��쓌,5.4,��
2018/07/15,10:00,0.883,1.259,0.878,1.554,1.110,0.479,0.832,0.786,��쓌,6.0,��
2018/07/15,10:10,0.879,1.260,0.875,1.558,1.108,0.478,0.830,0.786,��쓌,5.6,��
2018/07/15,10:20,0.881,1.261,0.877,1.556,1.109,0.478,0.832,0.786,��쓌,5.7,��
2018/07/15,10:30,0.881,1.261,0.876,1.556,1.110,0.480,0.831,0.785,��쓌,6.4,��
2018/07/15,10:40,0.882,1.263,0.877,1.557,1.111,0.478,0.832,0.786,��쓌,6.3,��
2018/07/15,10:50,0.883,1.261,0.877,1.557,1.112,0.478,0.832,0.786,��쓌,5.9,��
2018/07/15,11:00,0.885,1.261,0.878,1.555,1.111,0.479,0.831,0.788,��쓌,6.0,��
2018/07/15,11:10,0.882,1.263,0.879,1.558,1.109,0.479,0.832,0.787,��쓌,7.0,��
2018/07/15,11:20,0.883,1.260,0.876,1.556,1.113,0.479,0.831,0.786,��쓌,8.3,��
2018/07/15,11:30,0.882,1.261,0.878,1.557,1.111,0.479,0.833,0.788,��쓌,7.3,��
2018/07/15,11:40,0.883,1.262,0.880,1.559,1.109,0.478,0.831,0.787,��쓌,8.7,��
2018/07/15,11:50,0.881,1.262,0.876,1.557,1.112,0.477,0.834,0.788,��쓌,9.1,��
2018/07/15,12:00,0.884,1.263,0.878,1.559,1.112,0.479,0.832,0.787,��쓌,9.8,��
2018/07/15,12:10,0.883,1.264,0.879,1.556,1.115,0.480,0.832,0.788,��쓌,9.7,��
2018/07/15,12:20,0.884,1.264,0.876,1.557,1.114,0.479,0.833,0.786,��쓌,10.2,��
2018/07/15,12:30,0.885,1.261,0.879,1.557,1.113,0.480,0.833,0.787,��쓌,10.5,��
2018/07/15,12:40,0.886,1.264,0.880,1.559,1.115,0.483,0.834,0.787,��쓌,11.1,��
2018/07/15,12:50,0.886,1.265,0.880,1.556,1.115,0.482,0.832,0.788,��쓌,11.0,��
2018/07/15,13:00,0.883,1.265,0.880,1.557,1.115,0.481,0.834,0.787,��쓌,12.5,��
2018/07/15,13:10,0.885,1.264,0.879,1.558,1.117,0.480,0.835,0.787,��,10.8,��
2018/07/15,13:20,0.883,1.267,0.881,1.558,1.116,0.483,0.834,0.788,��,11.8,��
2018/07/15,13:30,0.883,1.267,0.881,1.558,1.118,0.481,0.834,0.786,��쓌,12.5,��
2018/07/15,13:40,0.884,1.265,0.881,1.558,1.116,0.482,0.834,0.788,��쓌,12.1,��
2018/07/15,13:50,0.883,1.266,0.878,1.557,1.119,0.483,0.834,0.789,��쓌,11.1,��
2018/07/15,14:00,0.885,1.266,0.879,1.559,1.118,0.480,0.835,0.790,��쓌,10.9,��
2018/07/15,14:10,0.885,1.267,0.882,1.560,1.114,0.480,0.837,0.789,��쓌,12.0,��
2018/07/15,14:20,0.884,1.265,0.882,1.559,1.119,0.482,0.836,0.788,��,10.3,��
2018/07/15,14:30,0.886,1.264,0.882,1.561,1.119,0.482,0.838,0.788,��,10.3,��
2018/07/15,14:40,0.886,1.268,0.882,1.560,1.116,0.482,0.834,0.790,��,9.9,��
2018/07/15,14:50,0.886,1.266,0.882,1.559,1.120,0.483,0.835,0.789,��,9.3,��
2018/07/15,15:00,0.887,1.268,0.883,1.559,1.118,0.483,0.836,0.789,��,8.5,��
2018/07/15,15:10,0.886,1.267,0.883,1.559,1.123,0.483,0.837,0.787,��,8.4,��
2018/07/15,15:20,0.887,1.268,0.883,1.562,1.122,0.482,0.836,0.789,��,9.9,��
2018/07/15,15:30,0.887,1.267,0.885,1.564,1.119,0.481,0.837,0.789,��,5.8,��
2018/07/15,15:40,0.886,1.267,0.884,1.562,1.120,0.480,0.837,0.790,��쓌,7.8,��
2018/07/15,15:50,0.885,1.266,0.883,1.558,1.121,0.480,0.837,0.787,��,8.2,��
2018/07/15,16:00,0.888,1.269,0.884,1.565,1.123,0.480,0.837,0.790,��,8.0,��
2018/07/15,16:10,0.888,1.266,0.883,1.566,1.119,0.479,0.839,0.789,��,7.6,��
2018/07/15,16:20,0.890,1.271,0.885,1.565,1.121,0.481,0.839,0.789,��,6.6,��
2018/07/15,16:30,0.890,1.270,0.883,1.566,1.122,0.481,0.838,0.788,��,7.6,��
2018/07/15,16:40,0.889,1.271,0.884,1.565,1.123,0.480,0.839,0.788,��,8.9,��
2018/07/15,16:50,0.889,1.272,0.884,1.569,1.122,0.481,0.837,0.790,��,7.5,��
2018/07/15,17:00,0.890,1.269,0.886,1.569,1.123,0.479,0.838,0.790,��,7.0,��
2018/07/15,17:10,0.890,1.272,0.884,1.568,1.122,0.481,0.841,0.789,��,6.3,��
2018/07/15,17:20,0.889,1.270,0.885,1.568,1.124,0.481,0.838,0.790,��,5.8,��
2018/07/15,17:30,0.890,1.270,0.883,1.565,1.123,0.481,0.837,0.792,��,5.7,��
2018/07/15,17:40,0.891,1.270,0.887,1.566,1.121,0.481,0.839,0.792,��쐼,5.9,��
2018/07/15,17:50,0.890,1.270,0.885,1.565,1.124,0.481,0.837,0.788,��쐼,6.9,��
2018/07/15,18:00,0.890,1.270,0.883,1.566,1.122,0.480,0.836,0.791,��,6.7,��
2018/07/15,18:10,0.889,1.269,0.884,1.567,1.121,0.480,0.835,0.790,��,7.6,��
2018/07/15,18:20,0.889,1.269,0.884,1.564,1.122,0.480,0.834,0.790,��,7.0,��
2018/07/15,18:30,0.891,1.270,0.886,1.565,1.123,0.479,0.836,0.792,��쐼,6.5,��
2018/07/15,18:40,0.891,1.265,0.883,1.566,1.121,0.480,0.834,0.790,��쐼,5.4,��
2018/07/15,18:50,0.889,1.270,0.886,1.566,1.122,0.478,0.837,0.790,��쐼,5.0,��
2018/07/15,19:00,0.889,1.267,0.882,1.567,1.120,0.479,0.837,0.792,��쐼,3.6,��
2018/07/15,19:10,0.889,1.268,0.883,1.567,1.117,0.479,0.838,0.792,��쐼,1.7,��
2018/07/15,19:20,0.888,1.267,0.882,1.567,1.119,0.479,0.837,0.791,��쐼,2.8,��
2018/07/15,19:30,0.891,1.267,0.884,1.567,1.121,0.479,0.838,0.791,�쐼,2.5,��
2018/07/15,19:40,0.891,1.267,0.882,1.566,1.120,0.479,0.837,0.790,���쐼,1.4,��
2018/07/15,19:50,0.891,1.270,0.883,1.568,1.119,0.480,0.839,0.791,���k��,1.4,��
2018/07/15,20:00,0.888,1.268,0.881,1.567,1.120,0.480,0.836,0.792,�k�k��,1.5,��
2018/07/15,20:10,0.889,1.267,0.883,1.565,1.122,0.480,0.835,0.791,�k�k��,0.9,��
2018/07/15,20:20,0.891,1.267,0.883,1.566,1.123,0.477,0.837,0.792,�k��,1.4,��
2018/07/15,20:30,0.889,1.268,0.882,1.564,1.122,0.479,0.836,0.791,�k��,1.1,��
2018/07/15,20:40,0.890,1.269,0.883,1.565,1.122,0.480,0.836,0.791,�k�k��,1.7,��
2018/07/15,20:50,0.888,1.265,0.882,1.565,1.121,0.478,0.834,0.790,�k,2.3,��
2018/07/15,21:00,0.888,1.264,0.883,1.563,1.121,0.479,0.836,0.791,�k,1.2,��
2018/07/15,21:10,0.885,1.268,0.882,1.563,1.119,0.478,0.837,0.791,��,1.1,��
2018/07/15,21:20,0.889,1.267,0.884,1.564,1.121,0.478,0.838,0.789,�쐼,0.8,��
2018/07/15,21:30,0.888,1.265,0.883,1.565,1.122,0.479,0.835,0.789,-,CALM,��
2018/07/15,21:40,0.887,1.268,0.883,1.566,1.118,0.479,0.835,0.790,�k,0.6,��
2018/07/15,21:50,0.887,1.266,0.884,1.564,1.120,0.477,0.836,0.790,-,CALM,��
2018/07/15,22:00,0.888,1.269,0.882,1.567,1.119,0.479,0.833,0.789,�k,0.8,��
2018/07/15,22:10,0.887,1.267,0.882,1.563,1.121,0.478,0.837,0.790,�k��,0.6,��
2018/07/15,22:20,0.888,1.266,0.881,1.564,1.119,0.478,0.835,0.792,�k��,1.2,��
2018/07/15,22:30,0.889,1.268,0.883,1.565,1.117,0.479,0.834,0.790,�쐼,2.5,��
2018/07/15,22:40,0.887,1.264,0.884,1.564,1.119,0.478,0.836,0.790,�쐼,1.4,��
2018/07/15,22:50,0.889,1.266,0.883,1.568,1.118,0.479,0.836,0.790,�쐼,0.6,��
2018/07/15,23:00,0.889,1.267,0.883,1.567,1.117,0.479,0.836,0.791,�쐼,1.7,��
2018/07/15,23:10,0.889,1.265,0.883,1.565,1.120,0.479,0.835,0.790,�쐼,1.2,��
2018/07/15,23:20,0.888,1.265,0.884,1.566,1.120,0.479,0.837,0.790,��,1.5,��
2018/07/15,23:30,0.886,1.266,0.882,1.566,1.118,0.478,0.835,0.789,��,2.0,��
2018/07/15,23:40,0.886,1.265,0.881,1.564,1.119,0.478,0.836,0.788,��쐼,3.6,��
2018/07/15,23:50,0.889,1.264,0.887,1.563,1.121,0.481,0.836,0.790,��쐼,3.5,��
